Location: PSU-Greenbush Astrophysical Observatory
(37.5140°N, 94.9880°W)
Time: 17:29:46
(UTC-05:00)

BEESAT - Pass Details

Date: 28 February 2020
Orbit: 700 x 709 km, 98.6° (Epoch: 05 April)

Event Time Altitude Azimuth Distance (km) Brightness Sun altitude
Rises 19:22:12 0° 354° (N) 3,093 ? -14.6°
Reaches altitude 10° 19:25:11 10° 334° (NNW) 2,170 ? -15.2°
Maximum altitude 19:28:08 17° 295° (WNW) 1,756 ? -15.8°
Drops below altitude 10° 19:31:05 10° 257° (WSW) 2,162 ? -16.4°
Sets 19:34:03 0° 237° (WSW) 3,076 ? -17.0°
